User: anonymous   Login
Location: *
(17.3280°S, 114.7300°W)
Time: 20:34:12
(UTC+00:00)
Language:

SL-16 R/B - Orbit

View from above orbital plane
View from above orbital plane
View from above satellite
View from above satellite

Ground track
Ground track

The orbit data is extracted from the following two-line orbital elements,

1 28353U 04021B   20304.23196665 +.00000115 +00000-0 +85375-4 0  9994
2 28353 071.0041 016.6555 0003537 154.0747 206.0553 14.14239980846190
Epoch (UTC): 30 October 2020 05:34:01
Eccentricity: 0.0003537
inclination: 71.0041°
perigee height: 842 km
apogee height: 847 km
right ascension of ascending node: 16.6555°
argument of perigee: 154.0747°
revolutions per day: 14.14239980
mean anomaly at epoch: 206.0553°
orbit number at epoch: 84619

The dashed part of the orbit path shows where the satellite is in the earth's shadow,  

DLR